Virginia Beach, VA

1:47 PM EST on January 21, 2017 (GMT -0500)
Oceana NAS

Weather History for KNTU - August, 2014

Change the Weather History Date:

Friday, August 15, 2014

  Actual Average Record
Temperature  
Mean Temperature 72 °F -  
Max Temperature 81 °F 83 °F 96 °F (2016)
Min Temperature 64 °F 68 °F 63 °F (2015)
Cooling Degree Days 8    
Growing Degree Days 22 (Base 50)    
Moisture  
Dew Point 58 °F    
Average Humidity 61    
Maximum Humidity 81    
Minimum Humidity 43    
Precipitation  
Precipitation 0.00 in - - ()
Sea Level Pressure  
Sea Level Pressure 29.99 in    
Wind  
Wind Speed 6 mph (ESE)    
Max Wind Speed 10 mph    
Max Gust Speed -    
Visibility 10 miles    
Events      
Averages and records for this station are not official NWS values.
T = Trace of Precipitation, MM = Missing Value Source: NWS Daily Summary

Daily Weather History Graph

Daily Weather History Graph

Search for Another Location

Airport or City:

Trip Planner

Search our weather history database for the weather conditions in past years. The results will help you decide how hot, cold, wet, or windy it might be!

Date:

Astronomy

Aug. 15, 2014 Rise Set
Actual Time 6:21 AM EDT 7:55 PM EDT
Civil Twilight 5:53 AM EDT 8:22 PM EDT
Nautical Twilight 5:20 AM EDT 8:55 PM EDT
Astronomical Twilight 4:45 AM EDT 9:30 PM EDT
Moon 11:06 PM EDT (8/15) 11:51 AM EDT (8/15)
Length of Visible Light 14h 29m
Length of Day
13h 34m
Waning Gibbous, 69% of the Moon is Illuminated
Aug 15
Waning Gibbous
Aug 17
Last Quarter
Aug 25
New
Sep 2
First Quarter
Sep 8
Full

Hourly Weather History & Observations

Time (EDT) Temp. Heat Index Dew Point Humidity Pressure Visibility Wind Dir Wind Speed Gust Speed Precip Events Conditions
12:56 AM 69.1 °F - 59.0 °F 70% 29.97 in 10.0 mi SW 6.9 mph - N/A   Clear
1:56 AM 68.0 °F - 59.0 °F 73% 29.96 in 10.0 mi SSW 3.5 mph - N/A   Clear
2:56 AM 64.9 °F - 59.0 °F 81% 29.95 in 10.0 mi WSW 6.9 mph - N/A   Partly Cloudy
3:56 AM 66.0 °F - 60.1 °F 81% 29.95 in 10.0 mi WSW 6.9 mph - N/A   Scattered Clouds
4:56 AM 66.0 °F - 60.1 °F 81% 29.95 in 10.0 mi Calm Calm - N/A   Mostly Cloudy
5:56 AM 66.0 °F - 60.1 °F 81% 29.96 in 10.0 mi WSW 4.6 mph - N/A   Scattered Clouds
6:56 AM 66.9 °F - 60.1 °F 79% 29.98 in 10.0 mi Calm Calm - N/A   Mostly Cloudy
7:56 AM 70.0 °F - 64.0 °F 81% 30.00 in 10.0 mi Calm Calm - N/A   Mostly Cloudy
8:56 AM 75.9 °F - 55.9 °F 50% 30.01 in 10.0 mi North 10.4 mph - N/A   Mostly Cloudy
9:56 AM 77.0 °F - 55.9 °F 48% 30.03 in 10.0 mi NNE 8.1 mph - N/A   Overcast
10:56 AM 79.0 °F - 55.9 °F 45% 30.04 in 10.0 mi NE 9.2 mph - N/A   Scattered Clouds
11:56 AM 80.1 °F 80.6 °F 57.9 °F 47% 30.03 in 10.0 mi East 8.1 mph - N/A   Scattered Clouds
12:56 PM 79.0 °F - 57.0 °F 47% 30.02 in 10.0 mi Variable 4.6 mph - N/A   Scattered Clouds
1:56 PM 80.1 °F 80.2 °F 55.9 °F 43% 30.01 in 10.0 mi East 8.1 mph - N/A   Scattered Clouds
2:56 PM 81.0 °F 81.0 °F 57.0 °F 44% 29.99 in 10.0 mi ENE 10.4 mph - N/A   Scattered Clouds
3:56 PM 80.1 °F 80.2 °F 55.9 °F 43% 29.98 in 10.0 mi ESE 6.9 mph - N/A   Mostly Cloudy
4:56 PM 79.0 °F - 55.0 °F 44% 29.98 in 10.0 mi SE 9.2 mph - N/A   Scattered Clouds
5:56 PM 78.1 °F - 54.0 °F 43% 29.99 in 10.0 mi East 8.1 mph - N/A   Mostly Cloudy
6:56 PM 75.9 °F - 55.0 °F 48% 29.98 in 10.0 mi ESE 8.1 mph - N/A   Mostly Cloudy
7:56 PM 73.0 °F - 55.9 °F 55% 29.99 in 10.0 mi ESE 8.1 mph - N/A   Mostly Cloudy
8:56 PM 71.1 °F - 55.9 °F 59% 30.00 in 10.0 mi ESE 5.8 mph - N/A   Scattered Clouds
9:56 PM 71.1 °F - 59.0 °F 66% 30.01 in 10.0 mi ESE 5.8 mph - N/A   Scattered Clouds
10:56 PM 71.1 °F - 61.0 °F 70% 30.01 in 10.0 mi SE 6.9 mph - N/A   Scattered Clouds
11:56 PM 72.0 °F - 64.0 °F 76% 29.99 in 10.0 mi ESE 6.9 mph - N/A   Scattered Clouds